www.pogodaiklimat.ru

Погода и климат >> Архив погоды >> Гана >> Yendi


ПОГОДА в Yendi

  • Прогноз погоды в Yendi
  • Монитор погоды в Yendi
  • Климат города

АРХИВ ПОГОДЫ в Yendi

Время (UTC), дата Ветер
(напр.,м/с)
 
Видим.   Явления Облачность Т
(С)
Тd
(С)
f
(%)
Тe
(С)
Тes
(С)
Комфортность P
(гПа)
Po
(гПа)
Тmin
(С)
Tmax
(С)
R
(мм)
R24
(мм)
S
(см)
18 10.12 штиль 0 3000 м мгла 8/0
[Ac trans Cs]
+31.8 +16.9 41 +35 +35 очень
душно
1012.0 1012.0 +35.5
21 10.12 штиль 0 3000 м мгла 5/0
[Ci sp]
+25.3 +13.0 46 +27 +27 жарко 1014.9 1015.0
03 11.12 штиль 0 50 км мгла ?/? +23.5 +8.9 39 +24 +24 комфорт 1013.6 1014.0
06 11.12 СВ 1 3000 м мгла 3/0
[Ci sp]
+21.5 +8.8 44 +23 +23 комфорт 1014.3 1014.0 +21.0
09 11.12 СВ 2 3000 м мгла 3/0
[Ci sp]
+26.5 +11.3 39 +28 +35 жарко 1016.1 1016.0
12 11.12 СВ 1 3000 м мгла ясно +33.4 +10.6 25 +33 +51 опасность
солнечного
удара
1014.0 1014.0
15 11.12 СВ 1 3000 м мгла ясно +35.3 +12.0 24 +35 +44 очень
жарко
1010.8 1011.0
18 11.12 штиль 0 3000 м мгла 3/0
[Ci sp]
+32.0 +15.8 38 +35 +35 очень
душно
1011.5 1012.0 +34.5
21 11.12 штиль 0 3000 м мгла ясно +24.5 +15.0 55 +27 +27 жарко 1014.6 1015.0
00 12.12 СВ 2 3000 м мгла ясно +25.5 +9.0 35 +26 +26 жарко 1014.1 1014.0
03 12.12 СВ 3 3000 м мгла ясно +23.9 +6.0 32 +24 +24 комфорт 1013.4 1013.0
06 12.12 СВ 3 3000 м мгла 5/0
[Ac trans Ci sp]
+21.5 +7.1 39 +22 +22 комфорт 1014.1 1014.0 +21.2
09 12.12 СВ 2 3000 м мгла 5/0
[Ci sp]
+26.0 +9.0 34 +26 +33 жарко 1015.7 1016.0
12 12.12 СВ 1 3500 м мгла ясно +33.9 +11.8 26 +34 +52 опасность
солнечного
удара
1013.8 1014.0
15 12.12 СВ 1 3500 м мгла ясно +35.1 +12.6 26 +35 +44 очень
жарко
1011.1 1011.0
18 12.12 штиль 0 3500 м мгла 4/0
[Ci sp]
+31.6 +17.2 42 +35 +35 очень
душно
1012.0 1012.0 +35.4
21 12.12 штиль 0 3500 м мгла 3/0
[Ci sp]
+26.5 +16.7 55 +30 +30 душно 1014.8 1015.0
03 13.12 СВ 2 3500 м мгла ясно +24.4 +7.8 35 +25 +25 комфорт 1014.1 1014.0
06 13.12 СВ 1 3500 м мгла 5/0
[Ci sp]
+22.5 +8.1 40 +24 +24 комфорт 1015.5 1016.0 +21.8
09 13.12 СВ 1 3000 м мгла 3/0
[Ci sp]
+27.0 +11.4 38 +28 +36 жарко 1016.6 1017.0
12 13.12 СВ 1 3000 м мгла ясно +34.1 +11.2 25 +34 +52 опасность
солнечного
удара
1014.1 1014.0
15 13.12 СВ 1 3000 м мгла ясно +36.3 +13.1 25 +37 +45 очень
жарко
1010.9 1011.0
18 13.12 СВ 1 3000 м мгла 4/0
[Ci sp]
+32.2 +14.7 35 +34 +34 душно 1012.4 1012.0 +36.6
21 13.12 штиль 0 3000 м мгла 3/0
[Ci sp]
+29.3 +11.6 33 +30 +30 жарко 1015.1 1015.0
00 14.12 СВ 2 3000 м мгла ясно +27.5 +8.9 31 +28 +28 жарко 1015.3 1015.0
03 14.12 СВ 2 3000 м мгла ясно +25.2 +7.0 31 +25 +25 комфорт 1014.1 1014.0
06 14.12 СВ 2 3000 м мгла ясно +22.7 +7.5 38 +24 +24 комфорт 1014.8 1015.0 +22.1
09 14.12 СВ 2 3000 м мгла ясно +26.5 +8.1 31 +26 +34 жарко 1016.2 1016.0
12 14.12 СВ 14 3000 м мгла ясно +34.0 +9.1 22 +33 +48 жарко 1013.7 1014.0
15 14.12 Ю 25 3200 м мгла 5/5 300 м
[]
+34.1 +10.7 24 +33 +33 жарко 1010.7 1011.0
18 14.12 Ю 25 3200 м мгла 4/4 300 м
[]
+34.2 +13.7 29 +35 +35 очень
жарко
1012.5 1013.0
00 15.12 штиль 0 3000 м мгла 3/0
[Ci sp]
+24.3 +8.6 37 +25 +25 комфорт 1015.2 1015.0
09 15.12 СВ 1 3500 м мгла ясно +27.6 +7.8 29 +27 +36 жарко 1017.3 1017.0
12 15.12 СВ 2 3500 м мгла ясно +35.1 +7.5 18 +33 +50 жарко 1014.2 1014.0
15 15.12 СВ 1 3500 м мгла 3/0
[Ci sp]
+37.0 +8.3 17 +35 +43 очень
жарко
1011.3 1011.0
06 16.12 СВ 2 3500 м мгла ясно +22.4 +6.3 35 +23 +23 комфорт 1014.3 1014.0 +21.8
12 16.12 СВ 16 3500 м мгла ясно +35.0 +9.5 21 +34 +34 очень
жарко
1013.3 1013.0
15 16.12 СВ 1 3500 м мгла ясно +36.8 +11.0 21 +36 +45 очень
жарко
1010.6 1011.0
18 16.12 СВ 1 15 км мгла ясно +32.0 +17.8 43 +36 +36 очень
душно
1011.9 1012.0 +37.1
21 16.12 СВ 1 3500 м мгла ясно +28.4 +18.0 53 +29 +29 жарко 1014.3 1014.0
00 17.12 штиль 0 3500 м мгла 3/0
[Ci sp]
+23.0 +13.4 55 +26 +26 жарко 1014.5 1015.0
03 17.12 СВ 2 3500 м мгла 3/0
[Ci sp]
+25.5 +6.0 29 +25 +25 комфорт 1012.6 1013.0
09 17.12 СВ 2 3600 м мгла 3/0
[Ci sp]
+26.5 +10.4 36 +27 +35 жарко 1015.7 1016.0
12 17.12 ЮВ 2 3500 м мгла ясно +35.1 +15.4 31 +37 +54 опасность
солнечного
удара
1012.6 1013.0
15 17.12 СВ 2 3500 м мгла ясно +37.2 +22.1 42 +46 +53 опасность
перегрева
1010.0 1010.0

 

Местоположение метеостанции Yendi (Гана): широта 9.45 долгота -0.02 высота над уровнем моря 197 м.

В архиве по умолчанию представлена погода в Yendi за последнюю неделю. Архивные данные за месяц целиком и за предыдущие месяцы, начиная с января 2011 года, Вы можете получить, выбрав интересующий диапазон дат из раскрывающегося списка и нажав кнопку "Ввод!".


*Определитесь, кто Вы:
робот инопланетянин человек

Внимание! Время в таблицах - всемирное. Для получения местного времени необходимо прибавить поправку, которая в Yendi равна 1 ч.

Смотрите также архив погоды в соседних городах и на ближайших метеорологических станциях:

Погода в Tamale (Гана) (91 км)
Погода в Mango (Того) (116 км)
Погода в Niamtougou (Того) (128 км)
Погода в Kara (Того) (131 км)
Погода в Sokode (Того) (139 км)
Погода в Dapaon (Того) (163 км)
Погода в Kete-Krachi (Гана) (181 км)
Погода в Natitingou (Бенин) (181 км)
Погода в Navrongo (Гана) (200 км)
Погода в Po (Буркина-Фасо) (226 км)

Пояснения к столбцам:

Ветер - указаны скорость ветра в м/с - средняя за 10 мин, порывы в срок и между сроками (в фигурных скобках) и направление, откуда дует ветер: С - северный, СВ - северо-восточный, В - восточный, ЮВ - юго-восточный, Ю - южный, ЮЗ - юго-западный, З - западный, СЗ - северо-западный.
Видимость - горизонтальная дальность видимости в метрах или километрах. При видимости от 1 до 10 км при отсутствии осадков обычно наблюдается дымка, при ухудшении видимости до 1 км и менее - туман. В сухую погоду видимость может ухудшаться дымом, пылью или мглою.
Явления - указаны атмосферные явления, наблюдавшиеся в срок или в последний час перед сроком; фигурными скобками обозначены явления, наблюдавшиеся между сроками (за 1-3 часа до срока); квадратными скобками обозначены град или гололедные отложения с указанием их диаметра в мм.
Облачность - указаны через наклонную черту общая и нижняя облачность в баллах и высота нижней границы облаков в метрах; квадратными скобками обозначены формы облаков: Ci - перистые, Cs - перисто-слоистые, Cc - перисто-кучевые, Ac - высококучевые, As - высокослоистые, Sc - слоисто-кучевые, Ns - слоисто-дождевые, Cu - кучевые, Cb - кучево-дождевые. Подробнее классификацию облаков см. в Атласе облаков (PDF).
T - Температура воздуха - температура, измеренная на высоте 2 м над землей.
Td - Температура точки росы - температура, при понижении до которой содержащийся в воздухе водяной пар достигнет насыщения.
f - Относительная влажность воздуха - влажноcть воздуха, измеренная на высоте 2 м над землей.
Te - Эффективная температура - температура, которую ощущает одетый по сезону человек в тени. Характеристика душности погоды. При расчете учитывается влияние влажности воздуха и скорости ветра на теплоощущения человека.
Tes - Эффективная температура на солнце - температура, которую ощущает человек, с поправкой на солнечный нагрев. Характеристика знойности погоды. Зависит от высоты солнца над горизонтом, облачности и скорости ветра. Ночью, в пасмурную погоду, а также при ветре 12 м/с и более поправка равна нулю.
P - Атмосферное давление - приведенное к уровню моря атмосферное давление.
Po - Атмосферное давление - измеренное на уровне метеостанции атмосферное давление.
Tmin - Минимальная температура - минимум температуры воздуха на высоте 2 м над землей.
Tmax - Максимальная температура - максимум температуры воздуха на высоте 2 м над землей.
R - Количество осадков - Количество выпавших осадков за период времени, мм. При наведении курсора мыши на число - период времени, за который выпало указанное количество осадков.
R24 - Количество осадков - Количество выпавших осадков за 24 часа, мм.
S - Снежный покров - Высота снежного покрова, см. При наведении курсора мыши на число - состояние снежного покрова и степень покрытия местности в баллах.